When you browse on this site, cookies collect data to enhance your experience and personalize the content and advertising you see.
Visit our Privacy Policy to learn more. By continuing to use the site, you agree to this use of cookies and data.
  • In Hungary
  • List of Countries
  • For 7 days
  • Water Temperature
  • Weather Map
  • News
  • Weather Widgets
  • user-avatar
    Login

    Hourly Weather Perovka

    Today, 5 June, Friday

    Time Temperature Precipitation Wind Pressure Humidity
    00:00 +18°C° 0 mm 7 mps 747 mmHg 44%
    01:00 +18°C° 0 mm 7 mps 747 mmHg 44%
    02:00 +17°C° 0 mm 7 mps 747 mmHg 46%
    03:00 +17°C° 0 mm 7 mps 747 mmHg 49%
    04:00 +16°C° 0 mm 6 mps 747 mmHg 50%
    05:00 +16°C° 0 mm 7 mps 748 mmHg 52%
    06:00 +16°C° 0 mm 7 mps 748 mmHg 53%
    07:00 +16°C° 0 mm 8 mps 748 mmHg 54%
    08:00 +18°C° 0 mm 8 mps 749 mmHg 52%
    09:00 +20°C° 0 mm 8 mps 749 mmHg 50%
    10:00 +21°C° 0 mm 8 mps 749 mmHg 47%
    11:00 +22°C° 0 mm 8 mps 749 mmHg 45%
    12:00 +23°C° 0 mm 8 mps 749 mmHg 43%
    13:00 +24°C° 0 mm 8 mps 749 mmHg 40%
    14:00 +24°C° 0 mm 7 mps 749 mmHg 40%
    15:00 +24°C° 0 mm 7 mps 749 mmHg 39%
    16:00 +24°C° 0 mm 7 mps 749 mmHg 39%
    17:00 +24°C° 0 mm 6 mps 749 mmHg 42%
    18:00 +23°C° 0 mm 5 mps 748 mmHg 46%
    19:00 +22°C° 0 mm 4 mps 748 mmHg 49%
    20:00 +21°C° 0 mm 5 mps 748 mmHg 47%
    21:00 +20°C° 0 mm 6 mps 749 mmHg 44%
    22:00 +18°C° 0 mm 7 mps 749 mmHg 42%
    23:00 +19°C° 0 mm 6 mps 749 mmHg 40%

    Tomorrow, 6 June, Saturday

    Time Temperature Precipitation Wind Pressure Humidity
    00:00 +19°C° 0 mm 6 mps 749 mmHg 38%
    01:00 +19°C° 0 mm 6 mps 749 mmHg 36%
    02:00 +17°C° 0 mm 6 mps 749 mmHg 39%
    03:00 +16°C° 0 mm 5 mps 749 mmHg 41%
    04:00 +17°C° 0 mm 4 mps 750 mmHg 43%
    05:00 +15°C° 0.2 mm 4 mps 750 mmHg 47%
    06:00 +15°C° 0.2 mm 4 mps 749 mmHg 52%
    07:00 +14°C° 0.2 mm 4 mps 749 mmHg 57%
    08:00 +15°C° 0 mm 4 mps 750 mmHg 56%
    09:00 +15°C° 0 mm 5 mps 750 mmHg 56%
    10:00 +15°C° 0 mm 5 mps 750 mmHg 56%
    11:00 +16°C° 0 mm 5 mps 750 mmHg 56%
    12:00 +16°C° 0 mm 5 mps 750 mmHg 57%
    13:00 +17°C° 0 mm 6 mps 750 mmHg 58%
    14:00 +16°C° 0.8 mm 5 mps 750 mmHg 62%
    15:00 +15°C° 0.8 mm 5 mps 750 mmHg 66%
    16:00 +15°C° 0.8 mm 5 mps 750 mmHg 70%
    17:00 +15°C° 0 mm 5 mps 750 mmHg 70%
    18:00 +15°C° 0 mm 4 mps 750 mmHg 71%
    19:00 +15°C° 0 mm 4 mps 750 mmHg 71%
    20:00 +15°C° 0 mm 4 mps 750 mmHg 71%
    21:00 +14°C° 0 mm 4 mps 750 mmHg 72%
    22:00 +14°C° 0 mm 4 mps 751 mmHg 72%
    23:00 +14°C° 0 mm 4 mps 750 mmHg 71%

    Day after tomorrow, 7 June, Sunday

    Time Temperature Precipitation Wind Pressure Humidity
    00:00 +14°C° 0 mm 4 mps 750 mmHg 69%
    01:00 +14°C° 0 mm 3 mps 750 mmHg 68%
    02:00 +13°C° 0 mm 3 mps 750 mmHg 69%
    03:00 +13°C° 0 mm 3 mps 750 mmHg 70%
    04:00 +13°C° 0 mm 3 mps 750 mmHg 70%
    05:00 +14°C° 0 mm 3 mps 750 mmHg 67%
    06:00 +15°C° 0 mm 4 mps 750 mmHg 64%
    07:00 +17°C° 0 mm 4 mps 750 mmHg 61%
    08:00 +19°C° 0 mm 5 mps 751 mmHg 56%
    09:00 +20°C° 0 mm 6 mps 751 mmHg 51%
    10:00 +22°C° 0 mm 6 mps 751 mmHg 46%
    11:00 +23°C° 0 mm 6 mps 751 mmHg 43%
    12:00 +24°C° 0 mm 6 mps 751 mmHg 40%
    13:00 +26°C° 0 mm 6 mps 750 mmHg 37%
    14:00 +26°C° 0 mm 5 mps 750 mmHg 36%
    15:00 +27°C° 0 mm 5 mps 750 mmHg 36%
    16:00 +27°C° 0 mm 5 mps 750 mmHg 35%
    17:00 +26°C° 0 mm 5 mps 750 mmHg 39%
    18:00 +25°C° 0 mm 5 mps 750 mmHg 43%
    19:00 +23°C° 0 mm 4 mps 749 mmHg 48%
    20:00 +21°C° 0 mm 4 mps 749 mmHg 49%
    21:00 +20°C° 0 mm 4 mps 750 mmHg 50%
    22:00 +18°C° 0 mm 4 mps 750 mmHg 51%
    23:00 +18°C° 0 mm 4 mps 750 mmHg 52%

    8 June, Monday

    Time Temperature Precipitation Wind Pressure Humidity
    00:00 +17°C° 0 mm 4 mps 750 mmHg 52%
    01:00 +17°C° 0 mm 4 mps 750 mmHg 53%
    02:00 +15°C° 0 mm 4 mps 750 mmHg 54%
    03:00 +15°C° 0 mm 4 mps 750 mmHg 54%
    04:00 +14°C° 0 mm 3 mps 750 mmHg 55%
    05:00 +17°C° 0 mm 4 mps 750 mmHg 53%
    06:00 +17°C° 0 mm 5 mps 751 mmHg 52%
    07:00 +19°C° 0 mm 5 mps 751 mmHg 50%
    08:00 +21°C° 0 mm 6 mps 751 mmHg 46%
    09:00 +23°C° 0 mm 6 mps 751 mmHg 41%
    10:00 +26°C° 0 mm 7 mps 751 mmHg 36%
    11:00 +27°C° 0 mm 7 mps 751 mmHg 35%
    12:00 +27°C° 0 mm 7 mps 751 mmHg 34%
    13:00 +28°C° 0 mm 7 mps 751 mmHg 33%
    14:00 +28°C° 0 mm 7 mps 751 mmHg 34%
    15:00 +28°C° 0 mm 7 mps 751 mmHg 34%
    16:00 +27°C° 0 mm 6 mps 751 mmHg 35%
    17:00 +27°C° 0 mm 6 mps 751 mmHg 39%
    18:00 +26°C° 0 mm 5 mps 751 mmHg 43%
    19:00 +25°C° 0 mm 5 mps 751 mmHg 47%
    20:00 +23°C° 0 mm 4 mps 751 mmHg 49%
    21:00 +21°C° 0 mm 4 mps 751 mmHg 50%
    22:00 +20°C° 0 mm 4 mps 752 mmHg 52%
    23:00 +19°C° 0 mm 4 mps 752 mmHg 53%

    9 June, Tuesday

    Time Temperature Precipitation Wind Pressure Humidity
    00:00 +18°C° 0 mm 4 mps 752 mmHg 53%
    01:00 +17°C° 0 mm 4 mps 752 mmHg 54%
    02:00 +17°C° 0 mm 3 mps 752 mmHg 54%
    03:00 +17°C° 0 mm 3 mps 752 mmHg 55%
    04:00 +16°C° 0 mm 3 mps 752 mmHg 55%
    05:00 +18°C° 0 mm 3 mps 753 mmHg 54%
    06:00 +19°C° 0 mm 3 mps 753 mmHg 53%
    07:00 +21°C° 0 mm 4 mps 753 mmHg 52%
    08:00 +23°C° 0 mm 4 mps 753 mmHg 47%
    09:00 +26°C° 0 mm 4 mps 753 mmHg 42%
    10:00 +28°C° 0 mm 4 mps 753 mmHg 37%
    11:00 +28°C° 0 mm 4 mps 754 mmHg 35%
    12:00 +29°C° 0 mm 4 mps 754 mmHg 33%
    13:00 +29°C° 0 mm 4 mps 754 mmHg 31%
    14:00 +29°C° 0 mm 4 mps 753 mmHg 32%
    15:00 +29°C° 0 mm 4 mps 753 mmHg 33%
    16:00 +29°C° 0 mm 3 mps 753 mmHg 35%
    17:00 +28°C° 0 mm 3 mps 753 mmHg 39%
    18:00 +27°C° 0 mm 3 mps 753 mmHg 43%
    19:00 +27°C° 0 mm 3 mps 753 mmHg 48%
    20:00 +25°C° 0 mm 3 mps 753 mmHg 48%
    21:00 +24°C° 0 mm 3 mps 753 mmHg 48%
    22:00 +21°C° 0 mm 3 mps 753 mmHg 48%
    23:00 +20°C° 0 mm 3 mps 753 mmHg 54%

    10 June, Wednesday

    Time Temperature Precipitation Wind Pressure Humidity
    00:00 +20°C° 0 mm 3 mps 753 mmHg 59%
    01:00 +19°C° 0 mm 4 mps 753 mmHg 64%
    02:00 +19°C° 0 mm 3 mps 753 mmHg 64%
    03:00 +18°C° 0 mm 3 mps 753 mmHg 65%
    04:00 +18°C° 0 mm 3 mps 753 mmHg 65%
    05:00 +19°C° 0 mm 3 mps 753 mmHg 62%
    06:00 +20°C° 0 mm 3 mps 753 mmHg 59%
    07:00 +22°C° 0 mm 3 mps 753 mmHg 56%
    08:00 +25°C° 0 mm 3 mps 753 mmHg 50%
    09:00 +26°C° 0 mm 2 mps 753 mmHg 43%
    10:00 +28°C° 0 mm 2 mps 753 mmHg 37%
    11:00 +29°C° 0 mm 2 mps 753 mmHg 34%
    12:00 +30°C° 0 mm 2 mps 753 mmHg 30%
    13:00 +31°C° 0 mm 2 mps 753 mmHg 26%
    14:00 +31°C° 0 mm 2 mps 753 mmHg 27%
    15:00 +31°C° 0 mm 2 mps 752 mmHg 27%
    16:00 +31°C° 0 mm 2 mps 752 mmHg 28%
    17:00 +30°C° 0 mm 2 mps 752 mmHg 34%
    18:00 +28°C° 0 mm 2 mps 752 mmHg 40%
    19:00 +27°C° 0 mm 2 mps 752 mmHg 46%
    20:00 +26°C° 0 mm 2 mps 752 mmHg 46%
    21:00 +25°C° 0 mm 2 mps 752 mmHg 46%
    22:00 +24°C° 0 mm 2 mps 752 mmHg 46%
    23:00 +23°C° 0 mm 2 mps 752 mmHg 47%
    Show more